Temperature
20 20 20 20 23 24 23 23 23 23 23 22 22 22 23 22 22 20 17 17 17 16 17 17 17 17 17 17 17 17 17 17 17 17 17 17 17 17 17 17 17 17 17 17 17 17 17 17 17
20 20 20 22 24 24 23 23 23 23 22 22 22 22 22 21 19 18 17 17 16 16 16 16 17 17 17 17 17 17 17 17 17 17 17 17 17 17 17 17 17 17 17 17 17 17 17 17 17
20 20 21 24 24 24 23 23 23 22 22 22 22 21 21 20 18 17 17 16 16 16 16 16 17 17 17 17 17 17 17 17 17 17 17 17 17 17 17 17 17 17 17 17 17 17 17 17 17
20 21 23 24 23 23 23 23 23 23 22 22 22 21 20 18 18 17 17 16 16 16 16 16 17 17 17 17 17 17 17 17 17 17 17 16 16 16 16 17 17 17 17 17 17 17 17 17 17
20 23 24 23 23 23 23 23 23 23 23 22 22 21 19 17 17 17 16 16 16 16 16 16 16 16 17 17 17 16 16 16 16 16 16 16 16 16 16 16 16 17 16 16 17 17 17 17 17
22 24 24 23 23 23 23 22 23 23 22 22 22 21 19 17 17 17 16 16 16 16 16 16 16 16 16 16 16 16 16 16 16 16 16 16 16 16 16 16 16 16 16 16 16 17 17 17 17
23 24 23 23 22 22 23 22 23 23 22 21 21 21 19 17 17 16 16 16 16 16 16 16 16 16 16 16 16 16 16 16 16 16 16 16 16 16 16 16 16 16 16 16 16 16 16 17 17
22 24 23 23 22 22 22 22 21 22 21 20 20 21 19 17 16 16 16 16 16 16 16 16 16 16 16 16 16 16 16 16 16 16 16 16 16 16 16 16 16 16 16 16 16 16 16 16 16
21 24 23 23 22 22 22 22 21 20 21 20 19 19 18 17 17 16 16 16 16 16 16 16 16 16 16 16 16 16 16 16 16 16 16 16 15 15 15 16 16 16 16 16 16 16 16 16 16
23 23 23 23 23 23 22 22 21 21 21 20 19 18 17 17 17 17 16 16 16 16 16 16 16 16 16 16 16 15 15 15 15 15 15 15 15 15 15 16 16 16 16 16 16 16 15 15 15
23 23 22 22 22 22 22 21 21 22 22 21 20 18 17 17 17 17 17 16 16 16 16 16 16 16 16 16 16 15 15 15 15 15 15 15 15 15 15 15 15 15 15 15 15 15 15 15 15
23 22 22 22 21 21 22 21 21 21 21 20 19 18 18 17 17 17 17 16 16 16 16 16 16 16 16 16 16 15 15 15 15 15 15 15 15 15 15 15 15 15 15 15 15 15 15 15 15
23 22 21 21 21 21 21 21 21 20 19 19 18 18 18 17 17 17 17 16 16 16 16 16 16 16 16 16 15 15 15 15 15 15 15 15 15 15 15 15 15 15 15 15 15 15 15 15 15
22 22 22 21 21 21 21 21 21 20 19 18 18 18 18 17 17 17 17 16 16 16 16 16 16 15 16 16 15 15 15 15 15 15 15 15 15 15 15 15 15 15 14 14 14 14 14 14 14
22 22 22 22 22 21 22 22 21 20 19 19 18 18 18 17 17 17 17 16 16 16 16 16 16 15 15 15 15 15 15 15 15 15 15 15 15 14 15 15 14 14 14 14 14 14 14 14 14
23 23 22 22 22 21 22 22 22 20 19 19 19 18 17 17 17 17 16 16 16 16 16 16 16 15 15 15 15 15 15 15 15 15 15 14 14 14 14 14 14 14 14 14 14 14 14 14 14
23 23 22 22 22 22 22 22 22 20 19 20 19 19 18 17 17 17 16 16 16 16 16 16 16 15 15 15 15 15 15 15 15 14 14 14 14 14 14 14 14 14 14 14 14 14 14 14 14
22 23 22 22 22 22 22 22 22 20 20 20 20 19 18 18 17 17 16 16 16 16 16 15 15 15 15 15 15 15 15 14 14 14 14 14 14 14 14 14 14 14 13 13 13 13 13 13 13
23 23 22 22 22 22 22 22 22 21 20 20 20 20 19 18 18 17 16 16 16 16 16 15 15 15 15 15 15 14 14 14 14 14 14 14 14 14 13 13 13 13 13 13 13 13 13 13 13
22 22 22 22 22 22 22 22 22 22 21 20 20 20 19 19 18 17 16 16 16 16 16 15 15 15 15 15 15 15 14 14 14 14 14 13 13 13 13 13 13 13 13 13 13 13 13 13 13
22 22 22 22 22 22 22 22 22 22 21 20 19 19 19 19 18 17 16 16 16 16 15 15 15 15 15 15 15 14 14 14 14 14 14 13 13 13 13 13 13 13 13 13 13 12 12 12 13
22 22 22 22 22 22 22 22 23 22 21 21 20 19 19 18 18 17 16 16 16 16 15 15 15 15 15 15 14 14 14 14 14 14 13 13 13 13 13 13 12 12 12 12 12 12 12 12 12
22 22 22 22 22 22 22 22 23 23 22 22 21 20 19 18 18 17 16 16 16 16 15 15 15 15 15 15 15 14 14 14 13 13 13 13 13 13 13 12 12 12 12 12 12 12 12 12 12
21 21 21 21 22 21 22 22 22 23 22 22 21 20 19 18 17 17 16 16 15 15 15 15 15 15 15 15 15 14 14 14 13 13 13 13 13 12 12 12 12 12 12 12 12 12 12 12 12
21 21 21 21 21 22 22 21 22 23 22 22 21 20 19 18 17 16 16 15 15 15 15 15 15 14 14 14 14 14 14 13 13 13 13 13 12 12 12 12 12 12 12 12 12 12 12 12 11
22 22 21 21 21 22 21 21 22 22 21 20 20 19 18 18 17 16 16 16 15 15 15 15 15 14 14 14 14 14 13 13 13 13 13 12 12 12 12 12 11 11 11 11 11 11 11 11 11
21 22 22 21 21 21 22 22 22 21 21 20 19 19 18 17 16 16 16 15 15 15 15 15 15 14 14 14 14 14 13 13 13 13 12 12 12 12 12 11 11 11 11 11 11 11 11 11 11
22 22 21 21 20 20 21 21 22 21 21 21 20 19 18 17 16 16 15 15 15 15 15 15 14 14 14 14 14 14 13 13 13 13 12 12 12 12 11 11 11 11 11 11 11 11 11 11 11
21 21 21 21 21 20 21 22 22 22 21 21 20 19 18 17 16 16 15 15 15 15 15 15 14 14 14 14 13 13 13 13 13 12 12 12 12 12 11 11 11 11 11 11 11 10 10 10 10
21 21 21 20 20 20 20 21 21 21 20 20 19 18 17 16 16 15 15 14 14 14 14 14 14 14 14 13 13 13 13 13 12 12 12 12 11 11 11 11 10 10 10 10 10 10 10 10 10
Wind_Speed
3 1 1 2 2 3 5 5 4 5 4 5 5 5 6 6 4 5 4 4 4 4 5 6 5 6 7 8 8 9 9 9 9 9 10 10 9 10 10 9 9 9 9 10 9 9 9 9 9
1 1 2 2 2 5 6 5 6 6 6 6 5 5 6 6 6 6 5 5 5 5 5 6 6 6 7 7 8 8 8 9 9 9 9 9 9 9 10 10 9 9 9 9 9 9 9 9 9
2 1 1 1 2 4 6 6 7 7 5 3 4 4 4 5 5 4 5 6 5 5 5 7 6 6 7 7 8 8 8 9 9 9 9 9 10 10 10 10 10 10 9 9 8 8 9 8 8
2 2 1 3 7 5 5 7 7 7 5 4 5 6 5 5 4 5 7 6 6 6 6 8 6 6 7 8 8 8 9 9 9 9 9 9 9 10 10 10 10 9 9 9 8 8 8 7 7
2 1 4 5 6 5 5 5 5 5 4 4 4 6 6 5 6 8 8 6 6 6 6 8 7 7 8 8 8 8 9 9 9 9 9 9 9 9 10 10 10 9 9 8 8 8 8 7 7
1 1 4 6 6 5 5 4 4 5 6 5 5 7 6 6 7 8 7 6 6 6 6 8 8 8 8 8 8 9 9 9 9 9 10 10 9 9 9 10 10 10 9 9 9 8 8 8 8
1 2 3 6 6 5 4 3 3 4 5 4 3 5 6 6 7 7 7 7 6 6 6 6 7 8 8 8 8 9 9 9 9 10 10 10 9 9 9 9 9 10 10 10 10 10 9 9 9
0 2 5 4 5 5 4 4 3 3 5 4 2 3 5 7 8 8 7 7 6 5 5 5 5 6 6 8 9 9 9 9 10 10 10 9 9 9 8 8 9 9 10 10 10 11 11 10 10
1 2 4 4 4 4 5 5 4 3 5 4 3 4 6 11 10 9 7 6 5 5 5 5 5 5 5 6 7 7 8 8 7 8 8 5 6 7 7 11 9 9 9 9 10 9 8 7 9
1 2 3 2 3 5 5 4 4 4 4 4 4 5 9 10 10 8 7 6 6 5 5 4 4 5 5 5 5 4 5 5 5 5 5 5 5 6 7 9 9 9 8 8 8 6 4 3 5
1 2 4 3 4 5 5 4 2 3 2 2 4 7 10 10 9 7 6 6 5 5 5 4 4 4 4 4 4 3 3 4 4 4 5 4 4 4 4 4 5 5 4 5 5 3 4 4 5
3 3 3 3 4 4 4 4 3 1 1 2 4 8 10 9 8 7 6 6 5 5 5 4 4 4 4 4 3 3 3 3 3 3 4 3 3 3 3 3 4 3 3 3 3 3 4 4 4
4 4 4 3 4 4 4 3 2 1 2 4 6 8 9 8 7 6 6 6 6 5 5 4 4 3 3 3 3 3 3 3 3 3 3 3 2 2 3 3 3 4 4 3 3 3 4 4 4
4 4 3 3 3 3 3 2 2 2 4 6 7 7 7 7 7 6 6 6 6 6 5 5 4 3 3 3 3 3 3 3 3 3 2 3 3 3 2 3 3 4 4 3 3 3 3 3 3
4 4 3 2 2 3 3 3 3 3 6 7 7 7 7 6 6 6 6 6 6 6 5 5 4 3 3 3 2 2 2 2 2 2 2 3 3 3 3 2 3 3 3 3 3 3 3 2 2
4 4 3 2 2 3 5 3 3 5 7 7 6 7 6 6 6 6 6 5 5 6 5 5 4 3 3 2 2 2 2 2 2 2 2 2 3 3 3 2 2 2 2 2 2 2 2 2 2
5 4 3 3 3 3 6 4 3 5 7 7 7 7 7 7 6 6 6 6 5 6 6 5 5 4 3 3 2 2 2 2 2 2 2 1 2 2 2 2 2 2 2 2 2 2 2 2 2
4 4 4 3 2 4 6 5 4 6 7 7 7 7 7 7 7 7 7 6 6 6 6 6 5 4 3 3 3 3 2 2 2 2 1 1 1 1 2 2 1 2 1 2 2 2 2 2 2
4 4 4 3 1 4 6 6 6 6 8 8 8 9 9 8 7 7 7 7 7 7 7 7 6 5 4 3 3 2 2 2 2 1 1 1 1 1 1 1 1 1 1 1 2 1 2 2 1
6 6 5 2 2 4 5 7 6 7 9 9 9 9 9 9 8 8 8 8 8 8 8 7 6 5 5 3 3 2 2 2 2 1 2 1 1 1 1 1 1 1 1 1 1 1 1 1 1
7 7 6 5 3 5 6 7 6 5 7 7 8 9 9 9 9 10 10 9 9 9 9 7 7 6 5 5 3 3 3 2 2 2 1 1 1 1 0 1 1 0 1 1 1 1 0 0 1
6 4 5 6 6 4 5 6 4 5 6 7 7 8 8 8 9 9 9 10 10 10 9 8 8 7 6 6 5 5 4 3 3 2 2 2 1 1 1 1 0 0 0 1 1 1 0 1 0
4 2 4 6 7 8 7 7 4 4 6 6 5 6 7 7 8 9 9 10 10 10 9 8 8 7 7 6 6 5 4 3 2 2 3 2 2 2 1 1 1 1 1 1 1 1 1 1 1
3 3 4 5 6 8 6 7 4 3 3 2 3 4 5 5 7 8 8 8 9 8 9 8 8 8 7 7 6 6 5 4 4 3 3 3 2 2 2 2 2 2 1 1 2 2 2 2 1
6 6 4 5 6 4 2 5 4 1 1 2 2 2 3 4 5 7 8 9 9 9 9 9 9 8 8 8 7 7 6 6 5 4 4 3 2 2 2 2 2 2 2 2 2 2 2 2 2
8 8 5 4 4 3 4 6 2 0 0 1 1 2 3 3 4 5 7 8 8 9 9 9 9 9 9 8 8 7 6 5 4 4 4 4 2 2 2 3 3 2 2 2 2 2 2 2 3
7 8 6 6 6 6 5 4 3 2 2 2 2 2 2 3 3 4 5 7 7 8 8 9 9 9 9 8 8 7 7 6 5 5 5 3 3 2 3 3 3 2 2 2 2 2 2 2 2
5 5 5 6 4 6 5 6 4 4 3 3 2 2 2 2 2 3 4 5 6 7 7 8 8 8 8 8 7 6 7 7 6 5 5 4 4 3 3 3 3 3 3 3 3 3 2 2 2
6 7 6 6 6 5 4 2 1 2 2 1 1 1 1 1 2 3 3 4 4 5 6 7 8 8 8 8 8 8 7 7 6 6 5 5 5 4 4 4 3 3 3 3 3 3 3 4 3
7 8 8 8 7 7 7 3 3 1 0 0 1 1 1 0 1 2 3 4 4 5 5 5 6 7 7 8 8 8 7 7 7 7 6 6 5 5 5 4 4 4 4 4 4 4 4 4 4
Wind_Direction
208 202 228 228 196 124 99 99 107 111 88 72 74 77 71 51 38 77 92 105 96 99 96 100 80 77 77 78 77 84 87 89 89 86 84 85 84 84 85 88 90 87 86 84 82 81 78 76 73
190 188 237 235 177 131 107 111 112 95 108 110 88 82 78 71 64 93 114 112 107 97 92 87 84 78 77 78 78 80 86 88 89 86 85 85 84 84 84 84 88 88 87 84 80 77 77 76 71
155 236 268 133 106 105 114 117 112 107 118 120 98 72 64 77 91 99 110 123 110 95 89 87 84 79 76 75 80 81 84 86 86 85 83 83 83 82 82 82 83 84 82 77 76 77 76 75 71
216 204 178 120 106 86 106 121 123 126 116 105 113 100 86 67 89 106 121 123 108 98 92 91 87 82 78 75 82 83 84 85 85 83 81 78 78 79 80 80 79 78 77 74 71 73 74 74 73
230 196 136 122 107 101 108 120 139 130 113 112 114 105 99 84 98 113 119 117 110 103 95 95 86 82 81 77 81 82 83 83 83 84 80 73 74 78 81 78 76 74 75 74 72 71 70 67 68
188 184 149 132 118 115 116 123 126 113 109 114 117 113 102 110 118 119 119 113 105 99 97 98 93 83 80 76 73 76 79 80 80 81 78 74 73 74 77 77 73 71 72 73 70 71 70 66 65
181 141 132 130 130 125 120 125 123 117 114 103 115 115 117 128 126 128 121 112 103 98 95 95 103 101 91 80 74 73 76 74 74 75 74 74 74 74 73 74 73 72 72 70 68 68 71 66 66
191 151 138 141 142 126 122 129 110 106 103 96 116 114 125 143 141 135 125 117 110 102 97 94 91 92 99 98 82 76 74 73 74 73 71 71 73 74 73 77 74 74 72 70 69 66 65 62 63
227 173 148 148 149 132 137 134 116 101 113 108 85 70 112 138 146 142 134 126 117 108 103 100 93 86 86 92 96 94 88 80 84 83 81 84 82 79 80 67 70 75 73 71 69 66 67 70 77
204 154 123 119 130 134 139 131 136 151 130 124 118 108 126 144 153 149 145 141 135 128 118 110 104 100 96 94 100 95 91 87 79 78 84 81 77 73 74 81 74 76 78 82 74 71 83 67 72
107 116 120 122 126 139 143 130 140 174 140 161 160 147 149 156 157 156 152 147 142 136 125 121 116 104 103 104 97 90 87 86 85 80 84 82 81 87 84 86 93 85 80 74 82 84 64 61 58
120 106 125 129 137 152 154 152 142 135 43 98 142 147 155 163 163 162 158 151 149 143 136 127 120 114 109 105 99 99 96 91 88 81 79 82 78 71 71 72 70 69 68 59 57 55 64 59 59
128 123 117 127 131 141 137 145 148 125 111 115 130 145 158 166 165 160 160 158 159 151 146 136 131 121 112 105 98 100 95 92 91 76 71 80 80 73 75 71 66 63 63 66 55 56 59 52 50
129 134 132 139 152 164 154 161 184 159 145 140 145 153 161 167 167 162 164 166 166 162 156 142 142 132 127 123 121 106 104 101 89 88 78 83 87 84 80 75 67 61 54 51 51 54 58 56 56
149 153 148 153 174 177 189 192 197 163 162 160 161 162 164 172 173 174 175 171 169 165 160 153 152 144 138 132 114 107 110 106 92 87 84 86 86 88 86 77 77 68 58 52 47 49 50 54 56
186 200 192 156 204 196 223 217 158 163 176 179 177 174 176 181 185 182 179 175 169 168 164 157 158 158 147 140 131 119 115 107 103 104 88 85 92 89 83 76 71 68 61 53 50 38 40 45 44
204 210 200 176 195 210 227 238 180 181 193 194 193 190 189 188 192 190 186 183 177 176 172 168 170 166 157 153 141 124 118 110 107 108 98 92 92 94 98 79 62 64 61 50 51 47 30 40 41
206 216 215 215 183 215 229 243 219 198 209 211 207 203 200 201 200 194 191 190 185 181 179 174 173 173 163 166 153 133 122 113 102 105 107 93 94 98 107 112 93 75 73 55 55 69 53 40 30
232 235 240 247 222 231 239 250 248 217 218 223 220 216 213 212 202 192 189 188 187 185 183 178 179 173 170 167 168 158 150 130 115 111 107 109 118 116 109 130 110 81 76 51 49 72 83 67 26
226 234 242 242 211 247 259 265 256 231 225 228 228 222 217 211 201 191 189 185 190 188 188 183 182 182 178 175 172 165 153 145 128 110 94 89 109 125 141 170 156 143 121 80 54 74 56 71 10
229 244 252 260 253 234 263 261 237 218 219 225 229 227 220 212 207 198 192 190 190 191 190 188 185 180 177 175 163 149 146 157 157 150 133 112 106 104 140 163 182 172 182 119 74 95 86 30 39
246 255 254 252 255 257 246 273 244 214 213 217 220 219 218 211 208 201 195 194 194 194 191 190 186 182 176 175 178 180 185 185 185 172 169 169 153 149 205 211 226 207 185 158 174 122 108 287 4
257 251 243 252 263 265 245 258 252 199 223 217 210 210 212 208 205 202 198 198 196 190 189 191 188 184 182 185 187 197 200 191 179 177 175 175 168 182 201 212 214 225 233 241 235 227 241 263 285
186 189 205 230 251 254 245 244 257 215 232 207 186 192 194 194 196 198 195 194 191 185 186 189 191 187 187 190 191 197 199 190 184 186 181 184 180 190 203 218 214 209 226 245 249 246 241 257 267
208 230 237 228 227 243 205 244 255 305 289 238 206 177 172 173 179 185 188 189 186 187 188 190 191 190 188 194 197 200 202 201 199 195 193 191 192 199 208 212 224 220 231 243 244 245 247 249 255
219 232 249 264 261 263 221 240 224 97 300 201 174 140 139 151 164 176 185 188 187 189 191 193 195 194 192 197 200 201 199 204 205 206 205 203 205 213 212 210 217 222 227 238 232 244 244 247 251
217 227 251 272 277 271 238 228 229 201 189 160 153 140 143 150 161 173 182 186 187 188 191 195 197 198 197 199 201 203 203 202 206 210 210 207 213 218 216 216 219 225 233 238 235 245 247 251 258
248 219 214 234 254 256 238 238 227 185 171 152 152 148 141 140 155 170 174 178 184 190 192 194 198 201 199 200 201 203 205 204 206 206 208 210 215 215 216 220 223 227 229 231 236 247 252 244 243
202 209 225 233 251 266 261 233 119 163 144 146 80 53 90 144 157 162 169 171 173 182 188 194 200 203 202 203 204 203 205 206 205 210 213 215 217 216 216 222 225 227 230 228 224 237 242 245 242
234 230 226 236 240 247 267 269 116 164 141 300 341 3 22 117 157 155 157 164 170 180 184 191 201 203 205 205 205 206 204 204 209 213 217 218 217 220 222 223 228 231 236 234 231 234 239 243 249
Height
1503 1503 1503 1505 1504 1503 1508 1509 1507 1510 1511 1514 1514 1514 1514 1516 1519 1526 1527 1525 1526 1526 1526 1525 1525 1524 1524 1524 1524 1523 1523 1524 1524 1524 1524 1524 1524 1524 1524 1524 1524 1524 1524 1525 1525 1525 1525 1525 1525
1503 1503 1505 1505 1502 1508 1512 1509 1510 1511 1514 1516 1516 1516 1517 1520 1523 1525 1525 1526 1526 1527 1527 1526 1526 1525 1525 1525 1525 1525 1525 1525 1525 1525 1525 1525 1525 1525 1525 1525 1525 1525 1525 1526 1526 1526 1526 1526 1526
1503 1504 1506 1502 1504 1507 1512 1510 1511 1513 1516 1516 1517 1519 1520 1523 1525 1526 1526 1527 1528 1528 1528 1527 1527 1527 1526 1526 1526 1526 1526 1526 1526 1526 1526 1527 1527 1526 1526 1526 1526 1526 1527 1527 1527 1527 1527 1527 1527
1505 1506 1506 1503 1508 1508 1508 1510 1512 1514 1516 1517 1518 1520 1523 1526 1527 1527 1527 1528 1529 1529 1529 1528 1527 1528 1527 1527 1527 1527 1527 1528 1528 1528 1528 1528 1528 1528 1528 1527 1527 1527 1528 1528 1528 1528 1527 1527 1527
1505 1505 1503 1506 1509 1510 1510 1511 1513 1513 1515 1517 1518 1520 1525 1527 1527 1528 1528 1529 1530 1530 1530 1529 1529 1529 1529 1529 1529 1529 1529 1529 1529 1529 1529 1529 1529 1529 1529 1529 1529 1529 1529 1529 1529 1528 1528 1528 1528
1506 1503 1504 1509 1511 1511 1512 1513 1514 1514 1516 1518 1519 1521 1526 1528 1528 1529 1529 1530 1531 1531 1531 1530 1530 1530 1530 1530 1530 1530 1530 1530 1530 1530 1530 1530 1530 1530 1530 1530 1530 1530 1530 1530 1530 1529 1529 1529 1529
1506 1503 1505 1508 1512 1512 1514 1515 1515 1515 1517 1519 1521 1521 1526 1528 1529 1529 1530 1531 1531 1532 1532 1532 1532 1532 1531 1531 1531 1531 1531 1531 1531 1531 1531 1531 1531 1531 1531 1531 1531 1531 1531 1531 1531 1530 1530 1530 1529
1506 1505 1507 1508 1511 1513 1515 1516 1517 1517 1519 1522 1522 1522 1526 1529 1529 1530 1531 1531 1532 1533 1533 1533 1533 1534 1534 1533 1533 1533 1533 1533 1533 1533 1533 1533 1532 1533 1533 1533 1533 1532 1532 1532 1532 1532 1531 1531 1530
1507 1506 1508 1510 1511 1513 1515 1516 1519 1520 1520 1522 1523 1524 1526 1527 1529 1530 1531 1532 1533 1533 1534 1534 1534 1535 1535 1535 1534 1534 1534 1534 1534 1534 1534 1534 1535 1535 1535 1534 1534 1534 1533 1533 1533 1533 1533 1532 1532
1506 1506 1509 1509 1510 1512 1515 1516 1519 1520 1520 1522 1524 1525 1526 1527 1529 1530 1532 1533 1533 1534 1534 1535 1535 1535 1536 1536 1536 1536 1536 1536 1536 1536 1536 1536 1536 1536 1536 1535 1535 1535 1534 1534 1534 1534 1534 1534 1534
1506 1507 1509 1511 1512 1513 1515 1517 1519 1519 1520 1522 1523 1525 1526 1528 1529 1530 1532 1533 1534 1534 1535 1536 1536 1536 1536 1536 1537 1537 1537 1537 1537 1537 1537 1537 1537 1537 1537 1537 1537 1536 1536 1536 1535 1536 1536 1535 1535
1508 1510 1511 1512 1514 1515 1515 1517 1519 1520 1521 1522 1523 1524 1526 1527 1529 1530 1532 1533 1534 1535 1535 1536 1537 1537 1537 1537 1538 1538 1538 1538 1538 1538 1539 1539 1538 1538 1538 1538 1537 1537 1537 1536 1537 1536 1536 1536 1536
1509 1511 1513 1514 1515 1516 1516 1518 1519 1521 1522 1523 1523 1525 1526 1528 1529 1530 1532 1533 1534 1535 1535 1536 1537 1537 1538 1538 1538 1538 1539 1539 1539 1538 1539 1539 1539 1539 1539 1539 1538 1538 1538 1537 1537 1537 1537 1537 1536
1510 1511 1513 1514 1515 1516 1516 1518 1519 1521 1522 1523 1524 1525 1526 1528 1529 1530 1531 1532 1534 1534 1536 1536 1537 1538 1538 1539 1539 1539 1539 1539 1539 1539 1539 1540 1539 1539 1539 1539 1538 1538 1538 1538 1538 1538 1537 1537 1536
1511 1511 1512 1514 1514 1515 1516 1516 1517 1520 1522 1523 1524 1525 1526 1527 1529 1530 1531 1532 1533 1534 1535 1536 1537 1537 1538 1539 1539 1539 1539 1540 1540 1540 1540 1540 1540 1540 1540 1540 1539 1539 1538 1538 1538 1538 1537 1537 1537
1509 1510 1512 1513 1514 1515 1517 1516 1516 1519 1520 1521 1523 1524 1525 1527 1528 1529 1530 1531 1533 1534 1535 1536 1536 1537 1538 1538 1539 1539 1540 1540 1540 1540 1540 1540 1540 1540 1540 1540 1540 1539 1539 1538 1538 1538 1538 1537 1537
1509 1510 1511 1512 1512 1513 1513 1514 1515 1518 1519 1520 1521 1522 1524 1525 1527 1528 1529 1530 1532 1533 1534 1535 1536 1537 1537 1538 1539 1539 1539 1539 1540 1540 1540 1540 1540 1540 1540 1540 1539 1539 1539 1539 1538 1538 1538 1537 1537
1510 1508 1510 1511 1511 1512 1512 1512 1513 1516 1517 1517 1519 1520 1522 1523 1525 1526 1527 1529 1530 1532 1533 1534 1535 1536 1537 1537 1538 1538 1539 1539 1539 1539 1539 1539 1540 1540 1540 1539 1540 1539 1539 1538 1538 1537 1537 1537 1537
1506 1508 1510 1509 1510 1511 1510 1510 1510 1512 1515 1515 1516 1517 1519 1521 1523 1524 1526 1527 1528 1530 1531 1533 1534 1535 1536 1536 1537 1538 1538 1539 1539 1539 1539 1539 1539 1539 1539 1539 1539 1539 1539 1538 1538 1537 1537 1537 1537
1507 1509 1509 1508 1509 1510 1508 1507 1506 1508 1510 1512 1513 1514 1516 1518 1520 1522 1523 1524 1526 1528 1529 1531 1533 1534 1535 1535 1536 1537 1537 1538 1538 1538 1538 1538 1538 1538 1539 1539 1539 1538 1538 1537 1537 1536 1537 1536 1536
1507 1507 1507 1508 1508 1508 1509 1506 1503 1503 1507 1509 1510 1511 1513 1515 1517 1518 1520 1522 1524 1525 1527 1529 1530 1532 1533 1534 1535 1536 1536 1536 1537 1537 1537 1537 1537 1537 1538 1538 1538 1538 1538 1537 1537 1536 1536 1536 1536
1507 1504 1506 1508 1509 1507 1508 1509 1499 1499 1502 1505 1507 1508 1510 1512 1514 1515 1517 1519 1521 1523 1525 1527 1529 1530 1531 1532 1533 1534 1535 1536 1536 1536 1536 1536 1536 1536 1536 1537 1537 1537 1537 1536 1536 1536 1536 1536 1536
1504 1505 1506 1506 1507 1507 1504 1507 1497 1496 1498 1499 1502 1505 1507 1509 1510 1512 1514 1516 1519 1521 1523 1525 1527 1528 1529 1531 1532 1533 1534 1534 1535 1535 1535 1535 1535 1535 1535 1535 1535 1536 1536 1536 1535 1535 1535 1535 1535
1505 1506 1506 1506 1505 1511 1502 1505 1500 1493 1494 1496 1499 1502 1504 1506 1508 1510 1512 1514 1516 1518 1520 1522 1524 1526 1527 1528 1530 1531 1532 1533 1533 1533 1533 1534 1534 1533 1533 1533 1534 1534 1534 1534 1534 1534 1534 1534 1534
1504 1506 1511 1512 1511 1506 1500 1503 1498 1491 1493 1496 1498 1500 1502 1504 1505 1507 1509 1511 1513 1515 1517 1519 1521 1523 1524 1526 1527 1528 1530 1531 1532 1532 1532 1532 1532 1532 1532 1532 1532 1532 1532 1532 1532 1532 1532 1532 1532
1500 1502 1510 1516 1511 1503 1501 1501 1493 1492 1495 1497 1498 1499 1501 1502 1503 1505 1506 1508 1510 1512 1515 1517 1518 1520 1522 1523 1525 1526 1527 1528 1529 1530 1530 1530 1530 1530 1530 1530 1530 1530 1530 1530 1530 1531 1531 1531 1531
1500 1499 1498 1504 1504 1507 1497 1493 1491 1491 1493 1496 1497 1498 1500 1501 1502 1503 1504 1506 1508 1510 1512 1514 1516 1518 1519 1521 1522 1524 1525 1526 1527 1527 1528 1528 1528 1528 1528 1528 1528 1528 1528 1528 1528 1528 1529 1528 1528
1497 1496 1501 1505 1511 1508 1499 1495 1491 1490 1491 1493 1495 1496 1498 1499 1500 1501 1502 1504 1506 1508 1510 1512 1514 1515 1517 1518 1519 1521 1522 1523 1524 1525 1525 1525 1526 1526 1526 1526 1526 1526 1526 1526 1526 1526 1526 1526 1526
1499 1499 1498 1499 1501 1506 1503 1495 1485 1487 1490 1492 1494 1496 1497 1498 1499 1500 1501 1502 1503 1505 1507 1509 1511 1513 1514 1515 1517 1518 1519 1520 1521 1522 1522 1523 1523 1523 1523 1523 1523 1523 1523 1524 1523 1523 1523 1523 1523
1493 1494 1496 1503 1502 1500 1500 1496 1486 1489 1491 1492 1493 1495 1496 1497 1498 1498 1499 1500 1501 1503 1504 1506 1507 1509 1510 1512 1513 1515 1516 1517 1518 1519 1519 1520 1520 1520 1521 1521 1521 1521 1521 1521 1521 1521 1520 1521 1521